Location: Bronschhofen
(47.4788°N, 9.0353°E)
Time: 21:19:59
(UTC+00:00)

CZ-4C R/B - Pass Details

Date: 20 May 2022
Orbit: 581 x 1419 km, 63.4° (Epoch: 01 July)

Event Time Altitude Azimuth Distance (km) Brightness Sun altitude
Rises 02:20:03 0° 313° (NW) 3,926 5.7 -11.4°
Reaches altitude 10° 02:22:54 10° 304° (WNW) 3,085 5.0 -11.1°
Maximum altitude 02:29:19 31° 246° (WSW) 2,108 3.8 -10.4°
Drops below altitude 10° 02:36:28 10° 189° (S) 3,457 4.9 -9.5°
Sets 02:39:52 0° 180° (S) 4,468 5.5 -9.1°
